Crosby, ND

2:52 AM CST on November 20, 2019 (GMT -0600)
Crosby

Weather History for KD50 - October, 2019

Change the Weather History Date:

Sunday, October 20, 2019

  Actual Average (KISN) Record (KISN)
Temperature  
Mean Temperature 39 °F -  
Max Temperature 50 °F 57 °F 80 °F (2017)
Min Temperature 28 °F 30 °F 12 °F (1896)
Degree Days  
Heating Degree Days 26    
Moisture  
Dew Point 29 °F    
Average Humidity 74    
Maximum Humidity 100    
Minimum Humidity 37    
Precipitation  
Precipitation 0.00 in - - ()
Sea Level Pressure  
Sea Level Pressure 29.78 in    
Wind  
Wind Speed 9 mph (WNW)    
Max Wind Speed 20 mph    
Max Gust Speed 24 mph    
Visibility 10 miles    
Events      
Averages and records for this station are not official NWS values.
T = Trace of Precipitation, MM = Missing Value Source: NWS Daily Summary

Daily Weather History Graph

Daily Weather History Graph

Search for Another Location

Airport or City:

Astronomy

Oct. 20, 2019 Rise Set
Actual Time 8:21 AM CDT 6:54 PM CDT
Civil Twilight 7:48 AM CDT 7:26 PM CDT
Nautical Twilight 7:12 AM CDT 8:02 PM CDT
Astronomical Twilight 6:35 AM CDT 8:39 PM CDT
Moon 11:44 PM CDT 3:12 PM CDT
Length of Visible Light 11h 37m
Length of Day
10h 32m
Waning Gibbous, 59% of the Moon is Illuminated
Oct 20
Waning Gibbous
Oct 21
Last Quarter
Oct 27
New
Nov 4
First Quarter
Nov 12
Full

Hourly Weather History & Observations

Time (CDT) Temp. Windchill Dew Point Humidity Pressure Visibility Wind Dir Wind Speed Gust Speed Precip Events Conditions
12:15 AM 30.2 °F 22.6 °F 30.2 °F 100% 29.62 in 10.0 mi SSW 8.1 mph - N/A   Clear
12:35 AM 30.2 °F 22.6 °F 28.4 °F 93% 29.62 in 10.0 mi SSW 8.1 mph - N/A   Clear
12:55 AM 30.2 °F 22.6 °F 28.4 °F 93% 29.62 in 10.0 mi SSW 8.1 mph - N/A   Clear
1:15 AM 30.2 °F 21.3 °F 28.4 °F 93% 29.62 in 10.0 mi SSW 10.4 mph - N/A   Clear
1:35 AM 30.2 °F 22.6 °F 28.4 °F 93% 29.62 in 10.0 mi SSW 8.1 mph - N/A   Partly Cloudy
1:55 AM 30.2 °F 23.4 °F 28.4 °F 93% 29.62 in 10.0 mi SSW 6.9 mph - N/A   Partly Cloudy
2:15 AM 30.2 °F 22.6 °F 28.4 °F 93% 29.63 in 10.0 mi SSW 8.1 mph - N/A   Partly Cloudy
2:35 AM 28.4 °F 20.4 °F 26.6 °F 93% 29.63 in 10.0 mi SSW 8.1 mph - N/A   Partly Cloudy
2:55 AM 30.2 °F 21.9 °F 26.6 °F 86% 29.64 in 10.0 mi SSW 9.2 mph - N/A   Clear
3:15 AM 30.2 °F 21.9 °F 26.6 °F 86% 29.65 in 10.0 mi SSW 9.2 mph - N/A   Clear
3:35 AM 30.2 °F 21.9 °F 28.4 °F 93% 29.65 in 10.0 mi SSW 9.2 mph - N/A   Clear
3:55 AM 30.2 °F 22.6 °F 28.4 °F 93% 29.65 in 10.0 mi SSW 8.1 mph - N/A   Clear
4:15 AM 30.2 °F 21.9 °F 28.4 °F 93% 29.66 in 10.0 mi SSW 9.2 mph - N/A   Clear
4:35 AM 30.2 °F 24.3 °F 28.4 °F 93% 29.66 in 10.0 mi SSW 5.8 mph - N/A   Clear
4:55 AM 30.2 °F 23.4 °F 28.4 °F 93% 29.66 in 10.0 mi SSW 6.9 mph - N/A   Clear
5:15 AM 32.0 °F 24.8 °F 28.4 °F 87% 29.66 in 10.0 mi SSW 8.1 mph - N/A   Clear
5:35 AM 32.0 °F 26.4 °F 28.4 °F 87% 29.66 in 10.0 mi SSW 5.8 mph - N/A   Clear
5:55 AM 32.0 °F 26.4 °F 28.4 °F 87% 29.67 in 10.0 mi SSW 5.8 mph - N/A   Clear
6:15 AM 32.0 °F 25.6 °F 30.2 °F 93% 29.68 in 10.0 mi SSW 6.9 mph - N/A   Clear
6:35 AM 32.0 °F 24.2 °F 30.2 °F 93% 29.69 in 10.0 mi SSW 9.2 mph - N/A   Partly Cloudy
6:55 AM 32.0 °F 24.2 °F 30.2 °F 93% 29.70 in 10.0 mi SSW 9.2 mph - N/A   Partly Cloudy
7:15 AM 33.8 °F 27.0 °F 30.2 °F 87% 29.70 in 10.0 mi SSW 8.1 mph - N/A   Clear
7:35 AM 32.0 °F 25.6 °F 30.2 °F 93% 29.71 in 10.0 mi SSW 6.9 mph - N/A   Partly Cloudy
7:55 AM 32.0 °F 24.8 °F 30.2 °F 93% 29.71 in 10.0 mi SW 8.1 mph - N/A   Scattered Clouds
8:15 AM 32.0 °F 27.5 °F 30.2 °F 93% 29.72 in 10.0 mi SW 4.6 mph - N/A   Mostly Cloudy
8:35 AM 35.6 °F 32.8 °F 30.2 °F 81% 29.73 in 10.0 mi West 3.5 mph - N/A   Overcast
8:55 AM 33.8 °F - 30.2 °F 87% 29.73 in 10.0 mi Calm Calm - N/A   Overcast
9:15 AM 32.0 °F - 30.2 °F 93% 29.74 in 9.0 mi Calm Calm - N/A   Scattered Clouds
9:35 AM 32.0 °F 27.5 °F 30.2 °F 93% 29.75 in 10.0 mi NW 4.6 mph - N/A   Clear
9:55 AM 35.6 °F 28.6 °F 32.0 °F 87% 29.76 in 10.0 mi NW 9.2 mph - N/A   Clear
10:15 AM 37.4 °F 31.4 °F 32.0 °F 81% 29.77 in 10.0 mi NW 8.1 mph - N/A   Partly Cloudy
10:35 AM 39.2 °F 32.0 °F 32.0 °F 75% 29.78 in 10.0 mi NW 11.5 mph - N/A   Clear
10:55 AM 42.8 °F 35.1 °F 33.8 °F 70% 29.79 in 10.0 mi NW 16.1 mph - N/A   Clear
11:15 AM 42.8 °F 35.1 °F 33.8 °F 70% 29.79 in 10.0 mi NNW 16.1 mph - N/A   Mostly Cloudy
11:35 AM 42.8 °F 35.8 °F 33.8 °F 70% 29.80 in 10.0 mi NNW 13.8 mph - N/A   Mostly Cloudy
11:55 AM 42.8 °F 35.4 °F 33.8 °F 70% 29.81 in 10.0 mi NNW 15.0 mph - N/A   Mostly Cloudy
12:15 PM 42.8 °F 35.4 °F 33.8 °F 70% 29.81 in 10.0 mi NNW 15.0 mph - N/A   Overcast
12:35 PM 42.8 °F 34.8 °F 33.8 °F 70% 29.81 in 10.0 mi North 17.3 mph - N/A   Mostly Cloudy
12:55 PM 44.6 °F 38.4 °F 33.8 °F 66% 29.82 in 10.0 mi NNW 12.7 mph - N/A   Mostly Cloudy
1:15 PM 46.4 °F 40.1 °F 33.8 °F 62% 29.82 in 10.0 mi NNW 15.0 mph - N/A   Mostly Cloudy
1:35 PM 46.4 °F 39.8 °F 32.0 °F 57% 29.82 in 10.0 mi NNW 16.1 mph - N/A   Scattered Clouds
1:55 PM 50.0 °F - 30.2 °F 47% 29.82 in 10.0 mi North 18.4 mph 24.2 mph N/A   Partly Cloudy
2:15 PM 48.2 °F - 26.6 °F 43% 29.82 in 10.0 mi North 17.3 mph - N/A   Mostly Cloudy
2:35 PM 50.0 °F - 26.6 °F 40% 29.82 in 10.0 mi North 16.1 mph 24.2 mph N/A   Mostly Cloudy
2:55 PM 48.2 °F - 26.6 °F 43% 29.82 in 10.0 mi NNW 19.6 mph - N/A   Mostly Cloudy
3:15 PM 50.0 °F - 26.6 °F 40% 29.83 in 10.0 mi North 12.7 mph - N/A   Scattered Clouds
3:35 PM 50.0 °F - 24.8 °F 37% 29.84 in 10.0 mi North 11.5 mph 19.6 mph N/A   Mostly Cloudy
3:55 PM 50.0 °F - 26.6 °F 40% 29.85 in 10.0 mi North 12.7 mph - N/A   Mostly Cloudy
4:15 PM 50.0 °F - 26.6 °F 40% 29.85 in 10.0 mi North 12.7 mph - N/A   Partly Cloudy
4:35 PM 50.0 °F - 26.6 °F 40% 29.85 in 10.0 mi North 13.8 mph - N/A   Clear
4:55 PM 50.0 °F - 24.8 °F 37% 29.86 in 10.0 mi North 13.8 mph - N/A   Clear
5:15 PM 50.0 °F - 24.8 °F 37% 29.86 in 10.0 mi North 11.5 mph - N/A   Clear
5:35 PM 48.2 °F - 24.8 °F 40% 29.86 in 10.0 mi North 9.2 mph - N/A   Clear
5:55 PM 48.2 °F - 24.8 °F 40% 29.86 in 10.0 mi NNW 10.4 mph - N/A   Clear
6:15 PM 46.4 °F 41.9 °F 26.6 °F 46% 29.87 in 10.0 mi NNW 9.2 mph - N/A   Clear
6:35 PM 44.6 °F 39.7 °F 26.6 °F 49% 29.87 in 10.0 mi NNW 9.2 mph - N/A   Clear
6:55 PM 42.8 °F 38.0 °F 26.6 °F 53% 29.87 in 10.0 mi NNW 8.1 mph - N/A   Clear
7:15 PM 39.2 °F 34.2 °F 26.6 °F 61% 29.88 in 10.0 mi NNW 6.9 mph - N/A   Clear
7:35 PM 37.4 °F 32.1 °F 26.6 °F 65% 29.88 in 9.0 mi NW 6.9 mph - N/A   Clear
7:55 PM 37.4 °F 32.8 °F 28.4 °F 70% 29.89 in 8.0 mi NW 5.8 mph - N/A   Clear
8:15 PM 37.4 °F 32.8 °F 28.4 °F 70% 29.89 in 10.0 mi WNW 5.8 mph - N/A   Partly Cloudy
8:35 PM 33.8 °F 29.6 °F 28.4 °F 81% 29.90 in 10.0 mi WNW 4.6 mph - N/A   Clear
8:55 PM 33.8 °F 27.0 °F 26.6 °F 75% 29.90 in 10.0 mi WNW 8.1 mph - N/A   Clear
9:15 PM 33.8 °F 26.4 °F 28.4 °F 81% 29.90 in 10.0 mi WNW 9.2 mph - N/A   Clear
9:35 PM 32.0 °F 24.2 °F 26.6 °F 80% 29.91 in 10.0 mi WNW 9.2 mph - N/A   Clear
9:55 PM 30.2 °F 21.9 °F 26.6 °F 86% 29.91 in 10.0 mi WNW 9.2 mph - N/A   Clear
10:15 PM 30.2 °F 22.6 °F 26.6 °F 86% 29.91 in 10.0 mi WNW 8.1 mph - N/A   Partly Cloudy
10:35 PM 30.2 °F 22.6 °F 26.6 °F 86% 29.91 in 10.0 mi WNW 8.1 mph - N/A   Partly Cloudy
10:55 PM 30.2 °F 22.6 °F 26.6 °F 86% 29.91 in 10.0 mi WNW 8.1 mph - N/A   Clear
11:15 PM 28.4 °F 21.2 °F 24.8 °F 86% 29.92 in 10.0 mi WNW 6.9 mph - N/A   Clear
11:35 PM 28.4 °F 23.3 °F 26.6 °F 93% 29.91 in 10.0 mi WNW 4.6 mph - N/A   Clear
11:55 PM 28.4 °F 23.3 °F 24.8 °F 86% 29.91 in 10.0 mi WNW 4.6 mph - N/A   Clear